Location: Christianberg
(48.9086°N, 14.0209°E)
Time: 20:39:36
(UTC+00:00)

SL-4 R/B - Pass Details

Date: 26 October 2021
Orbit: 427 x 661 km, 51.6° (Epoch: 03 December)

Event Time Altitude Azimuth Distance (km) Brightness Sun altitude
Exits shadow 04:13:35 19° 234° (SW) 1,365 3.6 -15.0°
Maximum altitude 04:14:00 20° 225° (SW) 1,347 3.6 -14.9°
Drops below altitude 10° 04:17:00 10° 178° (S) 1,800 4.7 -14.4°
Sets 04:19:35 0° 161° (SSE) 2,637 5.8 -14.0°
